weather.gov     
National Weather Service

Hourly Weather Roundup
NWS Homepage
This page is being discontinued on March 12, 2014.
The same data is available at this site. Please update your bookmarks.
Thank you, and we apologize for the inconvenience.
Please send an email to SR-SRH.Webmaster@noaa.gov with any concerns.


Current Version
Previous Version:    01  02  03  04  05  06  07  08  09  10  11  12  13  14  15  16  17  18  19  20  21  22  23  24  25  26  27  28  29  30  
   31  32  33  34  35  36  37  38  39  40  41  42  43  44  45  46  47  48  49  50  51  52  53  54  55  56  57  58  59  60  
[Printable]
698
NZUS43 KILX 021710
HWRILX

AREA WEATHER ROUNDUP
NATIONAL WEATHER SERVICE, LINCOLN IL
1200 PM CDT TUE SEP 02 2014


CITY           SKY/WX    TMP DP  RH WIND       PRES   REMARKS
BLOOMINGTON    CLOUDY    76  68  76 W10       29.96S
CHAMPAIGN      CLOUDY    75  69  81 VRB6      29.96F
DECATUR        CLOUDY    76  69  79 W5        29.96S
FLORA          CLOUDY    77  71  82 W9G17     29.96R
GALESBURG      PTSUNNY   83  69  62 CALM      29.94F HX  86
JACKSONVILLE   CLOUDY    78  70  77 W7        29.96F HX  80
LACON          PTSUNNY   77  65  68 CALM      29.93S
LAWRENCEVILLE  CLOUDY    74  71  91 N10       29.95S
LITCHFIELD     CLOUDY    73  69  86 MISG      29.97S
$$


CITY           SKY/WX    TMP DP  RH WIND       PRES   REMARKS
LINCOLN        CLOUDY    78  68  70 W5        29.92S HX  80
MACOMB         PTSUNNY   77  67  69 NW7       29.97S
MATTOON        CLOUDY    73  68  84 W6        29.96S
MT CARMEL AP   CLOUDY    81  73  78 W9        29.94S HX  85
OLNEY-NOBLE AP CLOUDY    77  72  83 CALM      29.95S
PARIS          CLOUDY    72  70  94 NW3       29.97S
PEORIA         PTSUNNY   80  67  64 VRB7      29.93F HX  82
PONTIAC        PTSUNNY   79  68  69 W7        29.93S HX  81
RANTOUL        CLOUDY    76  67  74 SW8       29.96S
ROBINSON       RAIN      74  72  95 W6        29.96F
SPRINGFIELD    CLOUDY    76  68  76 W6        29.96S
TAYLORVILLE    CLOUDY    73  68  83 W6        29.96F
$$

...REGIONAL REPORTS...


CITY           SKY/WX    TMP DP  RH WIND       PRES   REMARKS
CHICAGO O`HARE PTSUNNY   79  58  48 W9        29.90S HX  80
KANKAKEE       PTSUNNY   77  69  77 W8        29.93S
MOLINE         MOSUNNY   76  59  55 CALM      29.94F
MOUNT VERNON   CLOUDY    79  70  73 W10       29.96S HX  81
PITTSFIELD     CLOUDY    78  69  73 W7        29.98R HX  80
QUINCY         CLOUDY    77  67  71 W8        29.96S
ROCKFORD       PTSUNNY   73  56  54 SW3       29.92F
$$


CITY           SKY/WX    TMP DP  RH WIND       PRES   REMARKS
BURLINGTON     CLOUDY    78  64  61 W5        29.95R HX  80
CEDAR RAPIDS   SUNNY     73  61  65 W7        29.94S
DES MOINES     MOSUNNY   75  59  57 VRB5      29.96F
KIRKSVILLE     MOSUNNY   78  65  63 VRB5      29.99S HX  80
OTTUMWA        SUNNY     75  62  64 W8        29.94F
ST LOUIS       CLOUDY    77  70  79 NW8       29.98S
$$


CITY           SKY/WX    TMP DP  RH WIND       PRES   REMARKS
TERRE HAUTE    CLOUDY    73  68  84 SW7       29.96F
EVANSVILLE     PTSUNNY   80  73  79 SW9       29.95F HX  84
INDIANAPOLIS   CLOUDY    73  66  78 W12       29.95F
LAFAYETTE      CLOUDY    73  68  84 VRB6      29.94F
MADISON        PTSUNNY   73  61  65 VRB3      29.91S
MILWAUKEE      PTSUNNY   76  57  51 W10       29.89S
$$






U.S. Dept. of Commerce
NOAA National Weather Service
1325 East West Highway
Silver Spring, MD 20910
E-mail: w-nws.webmaster@noaa.gov
Page last modified: May 16, 2007
NATIONAL WEATHER SERVICE: for Safety, for Work, for Fun - FOR LIFE